• Processing (Info)

  • MPEC 2020-F33 : 2020 FY

    The following Minor Planet Electronic Circular may be linked-to from your own Web pages, but must not otherwise be redistributed electronically.

    A form allowing access to any MPEC is at the bottom of this page.


    Read MPEC 2020-F32 Read MPEC 2020-F34


    M.P.E.C. 2020-F33                                Issued 2020 March 18, 00:39 UT
    
         The Minor Planet Electronic Circulars contain information on unusual
             minor planets and routine data on comets.  They are published
        on behalf of Division F of the International Astronomical Union by the
              Minor Planet Center, Smithsonian Astrophysical Observatory,
                              Cambridge, MA 02138, U.S.A.
    
                 Prepared using the Tamkin Foundation Computer Network
    
                                  MPC@CFA.HARVARD.EDU
                URL https://www.minorplanetcenter.net/    ISSN 1523-6714
    
                                     2020 FY                                 
    
    
    Observations:
         K20F00Y* C2020 03 16.10743 09 55 15.38 +13 58 17.2          21.6 GVEF033G96
         K20F00Y  C2020 03 16.11219 09 55 15.98 +13 58 41.5          20.4 GVEF033G96
         K20F00Y  C2020 03 16.11697 09 55 16.56 +13 59 05.3          21.5 GVEF033G96
         K20F00Y  C2020 03 16.12173 09 55 17.18 +13 59 28.8          21.9 GVEF033G96
         K20F00Y  C2020 03 16.19995 09 55 27.21 +14 05 56.0          20.7 GVEF033I52
         K20F00Y  C2020 03 16.20329 09 55 27.63 +14 06 12.0          21.8 GVEF033I52
         K20F00Y  C2020 03 16.20663 09 55 28.07 +14 06 28.3          21.4 GVEF033I52
         K20F00Y  C2020 03 16.20998 09 55 28.46 +14 06 45.4          21.8 GVEF033I52
         K20F00Y |C2020 03 17.07387 09 57 30.70 +15 16 53.7          21.3 GVEF033807
         K20F00Y |C2020 03 17.07980 09 57 31.45 +15 17 21.7          21.4 GVEF033807
         K20F00Y |C2020 03 17.08572 09 57 32.20 +15 17 49.9          21.3 GVEF033807
         K20F00Y  C2020 03 17.14093 09 57 40.72 +15 21 29.1          22.1 GVEF033V06
         K20F00Y  C2020 03 17.14409 09 57 41.13 +15 21 44.3          21.3 GVEF033V06
         K20F00Y  C2020 03 17.14726 09 57 41.53 +15 21 59.6          21.3 GVEF033V06
         K20F00Y  C2020 03 17.15043 09 57 41.95 +15 22 14.7          21.3 GVEF033V06
         K20F00Y  C2020 03 17.99880 09 59 39.32 +16 27 28.7          20.0 VVEF033033
         K20F00Y  C2020 03 18.00198 09 59 39.77 +16 27 42.6          21.0 VVEF033033
         K20F00Y  C2020 03 18.00515 09 59 40.21 +16 27 57.4          20.6 VVEF033033
    
    Observer details:
    033 Karl Schwarzschild Observatory, Tautenburg.  Observers U. Laux, S. Melnikov,
        B. Stecklum.  Measurer B. Stecklum.  1.34-m f/3 Schmidt + CCD.
    807 Cerro Tololo Observatory, La Serena.  Observers T. Linder, R. Holmes.  
        1.00-m f/10.0 astrograph + CCD.
    G96 Mt. Lemmon Survey.  Observer G. J. Leonard.  Measurers E. J. Christensen, 
       G. A. Farneth, D. C. Fuls, A. R. Gibbs, A. D. Grauer, H. Groeller, R. A. 
       Kowalski, S. M. Larson, G. J. Leonard, T. A. Pruyne, D. Rankin, R. L. Seaman,
        F. C. Shelly, K. W. Wierzchos.  1.5-m reflector + 10K CCD.
    I52 Steward Observatory, Mt. Lemmon Station.  Observer K. W. Wierzchos.  
        Measurers E. J. Christensen, G. A. Farneth, D. C. Fuls, A. R. Gibbs, A. D. 
       Grauer, H. Groeller, R. A. Kowalski, S. M. Larson, G. J. Leonard, T. A. 
       Pruyne, D. Rankin, R. L. Seaman, F. C. Shelly, K. W. Wierzchos.  1.0-m 
       reflector + CCD.
    V06 Catalina Sky Survey-Kuiper.  Observer H. Groeller.  Measurers E. J. 
       Christensen, G. A. Farneth, D. C. Fuls, A. R. Gibbs, A. D. Grauer, H. 
       Groeller, R. A. Kowalski, S. M. Larson, G. J. Leonard, T. A. Pruyne, D. 
       Rankin, R. L. Seaman, F. C. Shelly, K. W. Wierzchos.  1.55-m reflector + CCD.
    
    Orbital elements:
    2020 FY                                                  Earth MOID = 0.1785 AU
    Epoch 2020 May 31.0 TT = JDT 2459000.5                  Alexandersen
    M  77.35761              (2000.0)            P               Q
    n   0.58577341     Peri.  310.96591     -0.52118083     -0.85143380
    a   1.4146520      Node   169.93456     +0.84847036     -0.52432091
    e   0.2133554      Incl.   19.58160     +0.09202492     +0.01216818
    P   1.68           H   23.4           G   0.15           U   8
    Residuals in seconds of arc
    200316 G96  0.6+  0.3-    200316 I52  0.2+  0.5-    200317 V06  0.0   0.0
    200316 G96  0.3+  0.3+    200316 I52  0.3-  0.1+    200317 V06  0.1-  0.2+
    200316 G96  0.3-  0.3+    200317 807  0.0   0.0     200317 V06  0.1+  0.3+
    200316 G96  0.3-  0.2+    200317 807  0.0   0.1-    200317 033  0.4-  0.1+
    200316 I52  0.0   0.1+    200317 807  0.0   0.0     200318 033  0.0   0.3-
    200316 I52  0.1-  0.3-    200317 V06  0.0   0.2-    200318 033  0.3+  0.2+
    
    Ephemeris:
    2020 FY                  a,e,i = 1.41, 0.21, 20                  q = 1.1128
    Date    TT    R. A. (2000) Decl.     Delta      r    Elong.  Phase     V
    2020 02 17    08 54 09.3 -33 25 10   0.2019  1.1324   131.7    40.6    21.8
    ...
    2020 03 03    09 24 53.3 -08 09 14   0.1835  1.1576   152.8    23.0    21.1
    ...
    2020 03 11    09 43 14.5 +06 13 57   0.1975  1.1746   154.4    21.4    21.3
    ...
    2020 03 17    09 57 19.4 +15 10 32   0.2187  1.1887   149.5    25.1    21.6
    2020 03 18    09 59 40.4 +16 27 54   0.2230  1.1911   148.5    25.9    21.7
    2020 03 19    10 02 01.4 +17 41 45   0.2275  1.1936   147.4    26.7    21.8
    ...
    2020 03 25    10 16 04.0 +23 53 16   0.2582  1.2090   141.0    31.2    22.2
    ...
    2020 04 02    10 34 29.9 +29 22 11   0.3068  1.2309   133.4    36.1    22.8
    ...
    2020 04 17    11 07 26.1 +33 48 50   0.4128  1.2749   122.7    41.5    23.6
    
    A. U. Tomatic                (C) Copyright 2020 MPC           M.P.E.C. 2020-F33
    


    Read MPEC 2020-F32 Read MPEC 2020-F34


    MPEC number:

    Enter an MPEC number in one of the following forms:

    • 1997-B01 (the full form)
    • J97B01 (the packed version of the full form)
    • B01 (the abbreviated form)